Location: Syracuse
(43.0480°N, 76.1480°W)
Time: 15:50:35
(UTC-04:00)

Daily predictions for brighter satellites

Satellite Brightness Start Highest point End
(mag) Time Altitude Azimuth Time Altitude Azimuth Time Altitude Azimuth
USA 215 3.4 21:12:44 10° SE 21:19:17 78° SW 21:25:53 10° NW
Cosmos 1707 4.0 21:15:50 10° SSW 21:19:33 45° WNW 21:23:16 10° N
Cosmos 1674 4.0 21:16:56 10° SE 21:20:00 23° E 21:23:06 10° NE
Terra 4.0 21:26:09 10° ENE 21:27:44 12° ENE 21:29:19 10° NE
Resurs 01 Rocket 2.5 21:24:40 10° S 21:28:57 49° W 21:33:16 10° NNW
Cosmos 1048 Rocket 4.2 21:24:10 10° SSW 21:29:29 85° WNW 21:34:54 10° NNE
Cosmos 1726 3.7 21:26:32 10° NNE 21:29:32 22° ENE 21:32:30 10° SE
ERS-2 2.9 21:28:10 10° S 21:31:45 52° W 21:35:21 10° NNW
USA 186 4.4 21:29:54 10° SW 21:32:07 18° W 21:34:15 10° NW
Cosmos 921 Rocket 3.5 21:27:52 10° N 21:32:15 49° ENE 21:36:37 10° SE
OAO 3 Rocket 4.1 21:28:46 10° WSW 21:33:11 32° S 21:37:33 10° ESE
Cosmos 1825 Rocket 4.0 21:35:08 10° SSW 21:39:33 68° W 21:44:01 10° N
SL-8 R/B 3.7 21:36:07 10° SW 21:40:55 73° SSE 21:45:45 10° ENE
Cosmos 2278 Rocket 3.4 21:38:02 10° SSE 21:42:22 23° E 21:46:42 10° NE
ARGOS 3.2 21:37:10 10° SSE 21:42:35 77° ENE 21:48:02 10° N
Cosmos 1315 Rocket 3.3 21:40:26 10° SSW 21:44:28 65° WNW 21:48:34 10° N
Cosmos 1461 4.4 21:41:05 10° SSE 21:44:36 22° ESE 21:48:12 10° ENE
MetOp-A 4.2 21:43:26 10° SSE 21:48:47 83° ENE 21:54:10 10° NNW
Spot 2 Rocket 4.4 21:44:57 10° S 21:49:48 46° W 21:54:41 10° NNW
APEX 4.2 21:49:57 10° N 21:52:42 27° ENE 21:55:17 13° ESE
Cosmos 1844 Rocket 2.8 21:53:07 10° SSW 21:58:48 86° WNW 22:04:30 10° NNE
Cosmos 220 Rocket 4.5 21:55:01 10° S 21:58:56 38° ESE 22:02:51 10° NE
COSMOS 2406 3.3 21:53:44 10° NNW 21:59:31 71° ENE 22:04:22 15° SSE
Cosmos 1844 3.7 21:59:26 10° SSW 22:05:08 83° ESE 22:10:57 10° NNE
SL-08 RB Rocket 3.8 22:01:16 10° S 22:05:51 82° WSW 22:10:33 10° NNW
ATLAS 3B R/B 2.7 22:00:53 10° NNW 22:07:33 74° NE 22:12:52 16° SE
Cosmos 1238 Rocket 3.7 22:06:01 10° SSW 22:08:45 35° WNW 22:11:38 10° N
Cosmos 1110 Rocket 4.1 22:03:53 10° NNW 22:09:05 79° WSW 22:13:32 14° SSE
KORONAS-FOTON 3.8 22:05:29 10° S 22:09:21 72° E 22:13:16 10° NNE
SPOT 5 3.4 22:06:25 16° SE 22:10:24 54° ENE 22:15:35 10° N
SL-14 R/B 4.2 22:09:27 19° SE 22:11:32 31° E 22:15:02 10° NNE
USA 238 DEB 3.9 22:04:32 10° NW 22:11:43 83° SW 22:17:40 16° SSE
USA 238 3.9 22:04:39 10° NW 22:11:50 84° SW 22:17:45 16° SSE
Cosmos 1346 Rocket 3.8 22:11:06 10° NNW 22:14:56 45° W 22:18:48 10° SSW
ATLAS 5 CENTAUR R/B 2.8 22:14:23 19° SE 22:16:02 23° ESE 22:19:47 10° ENE
Lacrosse 5 3.3 22:11:53 10° WSW 22:16:40 41° NNW 22:21:28 10° NE
Cosmos-2242 3.9 22:12:29 10° NNW 22:16:44 48° W 22:20:57 10° SSW
Cosmos 1331 Rocket 4.2 22:16:18 10° NNW 22:21:29 69° WSW 22:25:39 16° S
S3M 4.0 22:16:03 10° S 22:22:23 76° E 22:28:47 10° N
NOSS 3-2 (A) 4.1 22:15:47 10° NW 22:23:21 80° NE 22:29:42 19° SE
SPOT 1/Viking Rocket 3.6 22:20:08 19° SSE 22:23:53 69° ENE 22:29:01 10° N
H-2A R/B 2.7 22:18:47 10° S 22:23:58 57° W 22:29:18 10° NNW
Cosmos 494 Rocket 4.3 22:18:57 10° SSW 22:24:10 69° WNW 22:29:27 10° NNE
Cosmos 2082 Rocket 3.5 22:24:07 10° N 22:29:07 30° NE 22:33:00 15° ESE
Cosmos 1833 Rocket 3.8 22:24:52 10° N 22:29:56 33° NE 22:33:38 17° ESE
Helios 1A 2.9 22:28:25 23° SSE 22:31:01 78° ENE 22:35:15 10° N
Helios 1B rocket 2.8 22:27:46 10° NNE 22:31:43 44° E 22:33:41 25° SSE
Cosmos 1626 3.3 22:31:41 24° ESE 22:32:35 27° E 22:35:46 10° NNE
Cosmos 1908 4.4 22:31:17 10° NNW 22:34:54 39° W 22:38:07 12° SSW
Cosmos 1842 Rocket 3.5 22:32:03 10° N 22:36:25 84° W 22:39:11 22° S
CZ-2C R/B 3.7 22:33:10 10° NE 22:37:43 27° E 22:39:35 22° SE
ATLAS 2AS CENTAUR R/B 3.8 22:31:47 10° SW 22:39:32 57° NW 22:47:33 10° NNE
Cosmos 1340 3.1 22:36:31 10° NNW 22:40:15 56° W 22:42:34 21° SSW
Cosmos 1553 Rocket 4.3 22:39:04 10° SSW 22:45:04 63° W 22:51:07 10° N
Landsat 7 3.8 22:42:27 25° SSE 22:45:18 89° ENE 22:50:06 10° NNW
Spot 1 4.3 22:46:00 29° SE 22:48:07 62° ENE 22:52:42 10° N
NOSS 3-2 (C) 4.1 22:41:38 10° NW 22:49:13 84° NE 22:54:47 23° SE
Cosmos 1302 Rocket 4.2 22:45:13 10° NNW 22:50:29 69° WSW 22:53:36 25° S
ERS-1 Rocket 3.9 22:46:45 14° SSW 22:50:47 42° W 22:55:34 10° NNW
DMSP B5D2-2 4.5 22:45:47 10° N 22:50:58 64° WNW 22:56:07 10° SSW
Cosmos 1455 3.7 22:55:19 10° NNE 22:58:22 23° ENE 22:59:05 22° E
Cosmos 883 Rocket 4.4 22:55:17 20° S 22:59:42 82° E 23:05:58 10° N
Cosmos 1300 2.9 22:56:06 10° NNW 22:59:55 66° W 23:01:28 33° SSW
Cosmos 2251 Rocket 4.0 22:58:03 10° SSW 23:03:20 62° WNW 23:08:37 10° NNE
Cosmos 1726 4.1 23:01:40 10° NW 23:04:43 24° W 23:07:13 13° SW
Terra 1.8 23:02:30 32° SSE 23:04:44 90° W 23:09:32 10° NNW
Cosmos 2315 Rocket 4.0 23:02:11 25° S 23:05:58 70° E 23:12:18 10° NNE
RESURS DK-1 2.9 23:06:04 36° ESE 23:06:21 37° ESE 23:10:11 10° NE
Cosmos 2221 2.5 23:02:03 10° NNW 23:06:23 76° W 23:08:10 34° S
Cosmos 1992 Rocket 4.2 23:01:15 10° NNW 23:06:25 58° ENE 23:08:42 32° SE
Okean 3 Rocket 3.6 23:06:52 38° SSE 23:08:19 61° E 23:12:39 10° NNE
H-2A R/B 4.2 23:09:34 23° S 23:12:58 29° SE 23:41:08 10° E
NOSS 2-2 (E) 3.3 23:11:46 23° SW 23:14:09 89° SE 23:18:37 10° NE
CENTAUR R/B 3.3 23:06:44 10° NNW 23:14:38 68° NE 23:20:13 24° SE
Meteor 1-29 3.1 23:11:22 10° N 23:14:45 70° WNW 23:15:42 42° SW
NOSS 3-4 (A) 3.6 23:10:28 10° SW 23:16:37 79° NW 23:23:06 10° NE
NOSS 3-4 (C) 3.5 23:10:33 10° SW 23:16:42 80° NW 23:23:11 10° NE
CZ-2C R/B 3.4 23:19:33 31° S 23:22:30 77° WSW 23:28:16 10° NNW
Cosmos 1328 3.8 23:21:27 43° SSW 23:22:40 80° W 23:26:38 10° N
Meteor 1-11 4.3 23:20:56 34° SSE 23:23:21 62° E 23:29:05 10° NNE
Cosmos 1461 4.1 23:18:54 10° SW 23:23:25 49° NW 23:28:05 10° NNE
Cosmos 2278 Rocket 2.9 23:20:29 10° SW 23:26:00 54° WNW 23:31:36 10° NNE
ATLAS 3B CENTAUR R/B 4.0 23:22:29 10° SW 23:34:12 28° S 23:35:02 28° S
Spot 4 3.9 23:33:05 43° SE 23:34:36 69° ENE 23:39:27 10° N
Cosmos 407 Rocket 4.0 23:35:41 37° ESE 23:36:25 39° ESE 23:41:12 10° NE
Cosmos 1441 Rocket 3.7 23:35:44 10° N 23:39:22 44° ENE 23:39:34 43° E
NOSS 2-2 (D) 4.0 23:42:34 20° WSW 23:45:07 55° NW 23:49:30 10° NNE
Cosmos 1190 Rocket 4.2 23:49:20 47° SE 23:50:21 54° ESE 23:55:26 10° NNE
Cosmos 405 Rocket 3.1 23:48:08 10° N 23:51:43 46° ENE 23:51:43 46° ENE
Cosmos 2369 Rocket 3.6 23:54:56 22° ESE 23:55:06 22° E 23:59:20 10° NE
